sat.trackr.live / text

‹ back to catalog

STARLINK-30550

NORAD 58045 · 2023-156T

PAYLOAD ACTIVE UNKNOWN

§ Identity

Operator
Country
US
Launch date
2023-10-09
Launch site
AFWTR
Launch vehicle
Mass (kg)
RCS (m²)

Purposes: comms

External: N2YO · Heavens-Above · Gunter

§ Orbital elements

Epoch: 2026-05-24T21:34:10.132896Z

Period
94.11 min
Inclination
53.1613°
Eccentricity
0.0001195
Mean motion
15.30195389 rev/d
Perigee alt
474.4 km
Apogee alt
476.0 km
Semi-major
6,853.4 km
B*
3.7204e-5
RAAN
7.3662°
Arg perigee
77.8092°
Mean anomaly
282.3042°
Rev number
14,904

§ Raw data

STARLINK-305501 58045U 23156T   26144.89872839  .00000743  00000+0  37204-4 0  99932 58045  53.1613   7.3662 0001195  77.8092 282.3042 15.30195389149049

JSON: /api/v1/satellites/58045 · /tle

For live sub-satellite position, see the globe view (requires WebGL).

§ Visibility from observer

Set your observer location to see the next 7 days of passes ≥ 10°. The values pass through the URL so the page stays shareable.

No JS? Fill the form by hand. The geolocation button needs JavaScript.